Regional Weather Roundup
Issued by NWS

Home | Current Version | Previous Version | Text Only | Print | Product List | Glossary Off
Versions: 1 2 3 4 5 6 7 8 9 10 11 12 13 14 15 16 17 18 19 20 21 22 23 24 25 26 27 28 29 30 31 32 33 34 35 36 37 38 39 40 41 42 43 44 45 46 47 48 49 50

000
ASUS43 KDMX 020107
RWRIA

WEATHER ROUNDUP FOR IOWA
NATIONAL WEATHER SERVICE DES MOINES IA
800 PM CDT SAT AUG 01 2015

NOTE: "FAIR" INDICATES FEW OR NO CLOUDS BELOW 12,000 FEET WITH NO
SIGNIFICANT WEATHER AND/OR OBSTRUCTIONS TO VISIBILITY.

* - THESE STATIONS ARE NOT NWS STATIONS...THUS NOT UNDER NWS
QUALITY CONTROL.  THEY ALSO DO NOT REPORT WEATHER SUCH
AS PRECIPITATION OR FOG.

IAZ001>003-012>014-020>022-031>034-043>046-020200-
   NORTHWEST IOWA

CITY           SKY/WX    TMP DP  RH WIND       PRES   REMARKS
CARROLL *      CLEAR     77  73  88 S6        29.90R
CHEROKEE *     CLEAR     77  70  78 S8        29.88R
DENISON *      CLEAR     77  72  83 S6        29.89S
LE MARS *      CLEAR     79  70  73 S9        29.88S HX  81
ORANGE CITY *  CLEAR     75  68  78 S7        29.87F
SHELDON *      CLEAR     77  66  69 S7        29.86S
SIOUX CITY     CLEAR     77  66  68 S10       29.88S
SPENCER        CLEAR     79  66  64 SW6       29.87F HX  81
STORM LAKE *   CLEAR     75  70  83 S8        29.90R
$$

IAZ055>058-069>071-079>083-090>094-020200-
   SOUTHWEST IOWA

CITY           SKY/WX    TMP DP  RH WIND       PRES   REMARKS
ATLANTIC *     CLEAR     79  72  78 SW7       29.92R HX  82
AUDUBON *      CLEAR     79  72  78 S3        29.93R HX  82
CLARINDA *     CLEAR     82  75  78 CALM      29.94S HX  89
COUNCIL BLFS * CLEAR     79  72  78 SE9       29.91F HX  82
CRESTON *      CLEAR     81  73  78 SW3       29.94F HX  85
HARLAN  *      CLEAR     77  77 100 S7        29.94S
LAMONI         PTCLDY    85  72  65 CALM      29.93F HX  91
RED OAK *      CLEAR     81  73  78 S6        29.92F HX  85
SHENANDOAH *   CLEAR     82  73  74 E3        29.92S HX  88
$$

IAZ047>049-059>061-072>074-084-020200-
   CENTRAL IOWA

CITY           SKY/WX    TMP DP  RH WIND       PRES   REMARKS
AMES           PTCLDY    80  74  81 S3        29.89F HX  85
ANKENY *       CLEAR     82  72  69 S7        29.89F HX  87
CHARITON *     CLEAR     81  73  78 S5        29.93S HX  85
DES MOINES     PTCLDY    84  71  65 SW6       29.90F HX  89
GRINNELL*      MOCLDY    79  72  78 SW5       29.93R HX  82
KNOXVILLE *    CLEAR     82  73  74 SW6       29.91S HX  88
MARSHALLTOWN   PTCLDY    79  72  79 S6        29.90S HX  82
PELLA *        MOCLDY    82  77  83 S3        29.92S HX  91
PERRY *          N/A     81  73  78 S3        29.89F HX  85
$$

IAZ004>006-015-016-023>025-035-036-020200-
   NORTH CENTRAL IOWA

CITY           SKY/WX    TMP DP  RH WIND       PRES   REMARKS
ALGONA *       CLEAR     77  70  78 S8        29.87F
CLARION *      CLEAR     77  72  83 S7        29.89F
ESTHERVILLE    CLEAR     76  66  71 SW6       29.86S
FORT DODGE *   CLEAR     79  68  69 S7        29.89F HX  81
MASON CITY     CLEAR     79  68  69 S8        29.89F HX  81
FOREST CITY *  CLEAR     77  68  73 S8        29.87F
IOWA FALLS *     N/A     79  72  78 S3        29.91F HX  82
$$

IAZ007>011-017>019-026>030-037>042-050>054-066-020200-
   NORTHEAST IOWA

CITY           SKY/WX    TMP DP  RH WIND       PRES   REMARKS
CEDAR RAPIDS   MOCLDY    79  75  87 S5        29.91S HX  83
CHARLES CITY * CLEAR     79  73  83 SW7       29.89S HX  82
CLINTON *      MOCLDY    77  70  78 SW5       29.94S
DECORAH *      CLEAR     79  68  69 CALM      29.87F HX  81
DUBUQUE        MOCLDY    78  71  79 SW6       29.91F HX  80
MONTICELLO *   CLEAR     79  72  78 S3        29.90F HX  82
OELWEIN *      CLEAR     77  72  83 S5        29.90F HAZE
WATERLOO       CLEAR     80  69  69 SW7       29.88S HX  83
$$

IAZ064-065-067-068-078-020200-
   EAST CENTRAL IOWA

CITY           SKY/WX    TMP DP  RH WIND       PRES   REMARKS
DAVENPORT      MOCLDY    79  68  69 SW6       29.93S HX  81
IOWA CITY      MOCLDY    81  72  74 S5        29.92F HX  85
MT. PLEASANT * MOCLDY    81  70  69 SE5       29.93S HX  84
MUSCATINE *    CLEAR     81  72  74 S6        29.92S HX  84
QUAD CITIES    MOCLDY    78  69  73 S6        29.91F HX  80
$$

IAZ062-063-075>077-085>089-095>099-020200-
   SOUTHEAST IOWA

CITY           SKY/WX    TMP DP  RH WIND       PRES   REMARKS
BURLINGTON     MOCLDY    81  74  79 S3        29.93F HX  86
FAIRFIELD *    CLEAR     81  72  74 S6        29.92F HX  84
FORT MADISON * CLEAR     81  73  78 S3        29.94F HX  85
KEOKUK *       CLEAR     82  73  74 S3        29.93S HX  88
OSKALOOSA *      N/A     79  73  83 S3        29.92S HX  82
CENTERVILLE *  CLEAR     81  75  83 S6        29.95S HX  86
OTTUMWA        PTCLDY    78  75  90 S6        29.91S HX  81
WASHINGTON *   CLEAR     79  73  83 S5        29.93F HX  82
$$

ABBREVIATIONS USED IN REMARKS
   TC - TEMPERATURES IN CELSIUS
  WCI - WIND CHILL INDEX
   HX - HEAT INDEX
  VSB - VISIBILITY
$$




USA.gov is the U.S. government's official web portal to all federal, state and local government web resources and services.